Date String (YYYY-MM-DD hh:mm:ss) UTC,Instrument flags,absolute air pressure of the measurement (hPa),sample flow rate (lpm),inlet stack bypass flow (lpm),air temperature of the measurement (°C),ambient temperature measured by the external sensor (°C),aerosol sample conditioner tube jacket temperature (°C),OPC LED temperature (°C),internal box temperature (°C),relative humidity of the measurement (%),span deviation,mass concentration of particles derived from Lorenz-Mie calculation of OPC scattering (μg/m³),mass concentration of particles derived from Lorenz-Mie calculation of OPC scattering (μg/m³),mass concentration of particles derived from Lorenz-Mie calculation of OPC scattering (μg/m³)
DateTimeUTC,F1_M11,P_M11,Q1_M11,Q2_M11,T1_M11,T2_M11,T3_M11,T4_M11,T5_M11,U1_M11,ZSPAN_M11,X0_M11,X2_M11,X1_M11
2023-06-07 18:00:00,SystemResetWarning,0829.6,5.00,000.00,029.3,027.5,000.0,037.8,030.8,29.8,0000.0,0011.53,0005.61,0004.97
2023-06-07 18:01:00,SystemResetWarning,0829.6,5.00,000.00,029.3,027.6,000.0,037.8,030.8,29.9,0000.0,0011.35,0005.53,0004.92
2023-06-07 18:02:00,SystemResetWarning,0829.6,5.00,000.00,029.3,027.7,000.0,037.8,030.9,30.4,0000.0,0011.26,0005.48,0004.89
2023-06-07 18:03:00,SystemResetWarning,0829.6,5.00,000.00,029.4,027.8,000.0,037.8,030.9,31.4,0000.0,0010.99,0005.42,0004.86
2023-06-07 18:04:00,SystemResetWarning,0829.6,5.00,000.00,029.4,027.8,000.0,037.9,030.9,30.0,0000.0,0010.60,0005.40,0004.83
2023-06-07 18:05:00,SystemResetWarning,0829.5,4.98,000.00,029.4,026.4,000.0,037.8,031.0,29.6,0000.0,0010.38,0005.36,0004.78
2023-06-07 18:06:00,SystemResetWarning,0829.5,5.01,000.00,029.4,025.4,000.0,037.8,031.0,30.2,0000.0,0010.51,0005.29,0004.71
2023-06-07 18:07:00,SystemResetWarning,0829.5,5.01,000.00,029.4,025.5,000.0,037.8,030.8,29.4,0000.0,0010.37,0005.21,0004.64
2023-06-07 18:08:00,SystemResetWarning,0829.4,5.00,000.00,029.3,025.8,000.0,037.8,030.6,29.7,0000.0,0010.26,0005.13,0004.58
2023-06-07 18:09:00,SystemResetWarning,0829.3,5.00,000.00,029.3,026.2,000.0,037.8,030.6,30.3,0000.0,0010.34,0005.10,0004.54
2023-06-07 18:10:00,SystemResetWarning,0829.4,5.00,000.00,029.3,026.5,000.0,037.8,030.6,30.9,0000.0,0010.15,0005.05,0004.54
2023-06-07 18:11:00,SystemResetWarning,0829.3,5.00,000.00,029.3,026.8,000.0,037.8,030.7,30.1,0000.0,0009.67,0004.99,0004.53
2023-06-07 18:12:00,SystemResetWarning,0829.4,5.00,000.00,029.3,027.1,000.0,037.8,030.7,31.6,0000.0,0010.74,0004.96,0004.50
2023-06-07 18:13:00,SystemResetWarning,0829.3,5.00,000.00,029.3,027.3,000.0,037.8,030.7,31.1,0000.0,0011.25,0004.93,0004.46
2023-06-07 18:14:00,SystemResetWarning,0829.3,5.01,000.00,029.3,027.5,000.0,037.8,030.8,30.9,0000.0,0011.15,0004.89,0004.41
2023-06-07 18:15:00,SystemResetWarning,0829.4,5.00,000.00,029.3,027.6,000.0,037.8,030.8,30.8,0000.0,0010.93,0004.80,0004.34
2023-06-07 18:16:00,SystemResetWarning,0829.4,5.00,000.00,029.3,027.8,000.0,037.8,030.9,28.5,0000.0,0010.71,0004.73,0004.27
2023-06-07 18:17:00,SystemResetWarning,0829.4,4.99,000.00,029.4,027.9,000.0,037.8,030.9,27.9,0000.0,0010.42,0004.67,0004.20
2023-06-07 18:18:00,SystemResetWarning,0829.3,4.98,000.00,029.4,027.0,000.0,037.8,031.0,28.0,0000.0,0010.69,0004.61,0004.15
2023-06-07 18:19:00,SystemResetWarning,0829.3,5.01,000.00,029.4,025.5,000.0,037.8,030.9,28.2,0000.0,0010.74,0004.57,0004.08
2023-06-07 18:20:00,SystemResetWarning,0829.4,5.01,000.00,029.4,025.4,000.0,037.7,030.8,29.2,0000.0,0010.56,0004.50,0004.03
2023-06-07 18:21:00,SystemResetWarning,0829.3,5.01,000.00,029.3,025.6,000.0,037.7,030.5,28.5,0000.0,0010.46,0004.46,0003.99
2023-06-07 18:22:00,SystemResetWarning,0829.3,4.99,000.00,029.2,026.0,000.0,037.8,030.5,28.5,0000.0,0011.14,0004.41,0003.94
2023-06-07 18:23:00,SystemResetWarning,0829.4,5.00,000.00,029.2,026.3,000.0,037.8,030.6,30.3,0000.0,0011.02,0004.37,0003.90
2023-06-07 18:24:00,SystemResetWarning,0829.4,5.01,000.00,029.2,026.7,000.0,037.8,030.6,29.0,0000.0,0009.81,0004.29,0003.85
2023-06-07 18:25:00,SystemResetWarning,0829.3,5.00,000.00,029.2,027.0,000.0,037.8,030.7,27.5,0000.0,0009.36,0004.23,0003.80
2023-06-07 18:26:00,SystemResetWarning,0829.3,5.00,000.00,029.2,027.2,000.0,037.8,030.7,27.6,0000.0,0009.34,0004.21,0003.78
2023-06-07 18:27:00,SystemResetWarning,0829.3,5.00,000.00,029.3,027.4,000.0,037.8,030.8,27.7,0000.0,0009.29,0004.19,0003.76
2023-06-07 18:28:00,SystemResetWarning,0829.3,5.00,000.00,029.3,027.6,000.0,037.8,030.8,28.9,0000.0,0009.83,0004.15,0003.75
2023-06-07 18:29:00,SystemResetWarning,0829.4,5.01,000.00,029.3,027.7,000.0,037.8,030.9,28.9,0000.0,0009.76,0004.11,0003.74
2023-06-07 18:30:00,SystemResetWarning,0829.3,4.99,000.00,029.3,027.8,000.0,037.8,030.9,27.8,0000.0,0009.59,0004.07,0003.73
2023-06-07 18:31:00,SystemResetWarning,0829.4,4.99,000.00,029.4,027.5,000.0,037.8,031.0,27.7,0000.0,0009.90,0004.04,0003.70
2023-06-07 18:32:00,SystemResetWarning,0829.4,5.00,000.00,029.4,025.8,000.0,037.8,031.0,27.8,0000.0,0010.29,0004.00,0003.67
2023-06-07 18:33:00,SystemResetWarning,0829.3,5.02,000.00,029.4,025.3,000.0,037.7,030.9,29.0,0000.0,0009.56,0003.98,0003.64
2023-06-07 18:34:00,SystemResetWarning,0829.3,5.00,000.00,029.3,025.6,000.0,037.7,030.7,28.5,0000.0,0009.17,0003.95,0003.61
2023-06-07 18:35:00,SystemResetWarning,0829.4,5.00,000.00,029.3,025.9,000.0,037.7,030.6,28.8,0000.0,0009.19,0003.96,0003.60
2023-06-07 18:36:00,SystemResetWarning,0829.3,5.00,000.00,029.2,026.3,000.0,037.7,030.6,28.9,0000.0,0009.33,0003.98,0003.61
2023-06-07 18:37:00,SystemResetWarning,0829.3,5.01,000.00,029.2,026.6,000.0,037.7,030.6,28.4,0000.0,0009.36,0003.97,0003.60
2023-06-07 18:38:00,SystemResetWarning,0829.3,5.00,000.00,029.2,026.9,000.0,037.8,030.7,29.3,0000.0,0009.28,0003.94,0003.59
2023-06-07 18:39:00,SystemResetWarning,0829.4,5.00,000.00,029.2,027.1,000.0,037.8,030.7,29.2,0000.0,0008.71,0003.94,0003.58
2023-06-07 18:40:00,SystemResetWarning,0829.4,5.00,000.00,029.3,027.3,000.0,037.8,030.7,28.0,0000.0,0008.40,0003.95,0003.57
2023-06-07 18:41:00,SystemResetWarning,0829.3,5.00,000.00,029.3,027.5,000.0,037.8,030.8,28.6,0000.0,0008.36,0003.94,0003.55
2023-06-07 18:42:00,SystemResetWarning,0829.3,4.99,000.00,029.3,027.7,000.0,037.8,030.8,29.3,0000.0,0008.20,0003.95,0003.55
2023-06-07 18:43:00,SystemResetWarning,0829.3,5.00,000.00,029.3,027.8,000.0,037.8,030.8,28.4,0000.0,0007.66,0003.94,0003.56
2023-06-07 18:44:00,SystemResetWarning,0829.3,4.99,000.00,029.4,027.2,000.0,037.8,030.9,28.5,0000.0,0007.60,0003.95,0003.56
2023-06-07 18:45:00,SystemResetWarning,0829.3,5.00,000.00,029.3,025.2,000.0,037.7,030.8,29.3,0000.0,0007.37,0004.00,0003.57
2023-06-07 18:46:00,SystemResetWarning,0829.2,5.01,000.00,029.3,024.2,000.0,037.7,030.8,28.7,0000.0,0007.36,0004.02,0003.58
2023-06-07 18:47:00,SystemResetWarning,0829.2,5.01,000.00,029.2,024.4,000.0,037.7,030.6,29.5,0000.0,0007.88,0004.05,0003.59
2023-06-07 18:48:00,SystemResetWarning,0829.2,5.00,000.00,029.1,024.8,000.0,037.7,030.4,29.3,0000.0,0008.61,0004.07,0003.61
2023-06-07 18:49:00,SystemResetWarning,0829.2,4.99,000.00,029.1,025.3,000.0,037.6,030.4,29.2,0000.0,0008.95,0004.09,0003.64
2023-06-07 18:50:00,SystemResetWarning,0829.2,5.01,000.00,029.0,025.7,000.0,037.6,030.4,29.7,0000.0,0009.05,0004.12,0003.65
2023-06-07 18:51:00,SystemResetWarning,0829.2,5.00,000.00,029.0,026.1,000.0,037.6,030.4,29.1,0000.0,0009.09,0004.16,0003.67
2023-06-07 18:52:00,SystemResetWarning,0829.2,5.00,000.00,029.0,026.5,000.0,037.6,030.5,29.4,0000.0,0009.42,0004.26,0003.71
2023-06-07 18:53:00,SystemResetWarning,0829.2,5.00,000.00,029.0,026.8,000.0,037.6,030.5,29.7,0000.0,0009.51,0004.28,0003.74
2023-06-07 18:54:00,SystemResetWarning,0829.2,5.00,000.00,029.1,027.0,000.0,037.6,030.6,29.8,0000.0,0009.55,0004.32,0003.76
2023-06-07 18:55:00,SystemResetWarning,0829.1,5.00,000.00,029.1,027.3,000.0,037.6,030.7,29.4,0000.0,0009.60,0004.37,0003.79
2023-06-07 18:56:00,SystemResetWarning,0829.1,4.99,000.00,029.1,027.5,000.0,037.6,030.7,29.9,0000.0,0009.63,0004.34,0003.82
2023-06-07 18:57:00,SystemResetWarning,0829.1,5.00,000.00,029.2,027.7,000.0,037.7,030.8,31.4,0000.0,0009.64,0004.33,0003.83
2023-06-07 18:58:00,SystemResetWarning,0829.1,5.00,000.00,029.2,027.8,000.0,037.7,030.8,30.5,0000.0,0009.10,0004.33,0003.84
2023-06-07 18:59:00,SystemResetWarning,0829.1,5.01,000.00,029.3,028.0,000.0,037.7,030.9,30.1,0000.0,0009.39,0004.35,0003.84
